sat.trackr.live / text

‹ back to catalog

STARLINK-5078

NORAD 54857 · 2022-177AP

PAYLOAD ACTIVE UNKNOWN

§ Identity

Operator
Country
US
Launch date
2022-12-28
Launch site
AFETR
Launch vehicle
Mass (kg)
RCS (m²)

Purposes: comms

External: N2YO · Heavens-Above · Gunter

§ Orbital elements

Epoch: 2026-09-19T23:11:46.115808Z

Period
94.27 min
Inclination
43.0032°
Eccentricity
0.0001542
Mean motion
15.27576422 rev/d
Perigee alt
482.0 km
Apogee alt
484.1 km
Semi-major
6,861.2 km
B*
4.7990e-5
RAAN
104.3323°
Arg perigee
269.0980°
Mean anomaly
90.9695°
Rev number
20,680

§ Raw data

STARLINK-50781 54857U 22177AP  26262.96650597  .00001058  00000+0  47990-4 0  99992 54857  43.0032 104.3323 0001542 269.0980  90.9695 15.27576422206800

JSON: /api/v1/satellites/54857 · /tle

For live sub-satellite position, see the globe view (requires WebGL).

§ Visibility from observer

Set your observer location to see the next 7 days of passes ≥ 10°. The values pass through the URL so the page stays shareable.

No JS? Fill the form by hand. The geolocation button needs JavaScript.